Weather History for Wink, TX

Change the Weather History Date:

Saturday, January 19, 2013

  Actual Average Record
Temperature  
Mean Temperature 48 °F -  
Max Temperature 70 °F 57 °F 84 °F (2000)
Min Temperature 26 °F 28 °F 9 °F (1940)
Degree Days  
Heating Degree Days 17    
Moisture  
Dew Point 23 °F    
Average Humidity 51    
Maximum Humidity 92    
Minimum Humidity 12    
Precipitation  
Precipitation 0.00 in - - ()
Sea Level Pressure  
Sea Level Pressure 30.15 in    
Wind  
Wind Speed 4 mph (NW)    
Max Wind Speed 12 mph    
Max Gust Speed -    
Visibility 10 miles    
Events      
Averages and records for this station are not official NWS values.
T = Trace of Precipitation, MM = Missing Value Source: NWS Daily Summary

Daily Weather History Graph

Daily Weather History Graph

Search for Another Location

Airport:

Trip Planner

Search our weather history database for the weather conditions in past years. The results will help you decide how hot, cold, wet, or windy it might be!

Date:

Astronomy

Jan. 19, 2013 Rise Set
Actual Time 7:52 AM CST 6:15 PM CST
Civil Twilight 7:25 AM CST 6:41 PM CST
Nautical Twilight 6:56 AM CST 7:11 PM CST
Astronomical Twilight 6:26 AM CST 7:40 PM CST
Moon 12:39 PM CST (1/19) 1:33 AM CST (1/19)
Length of Visible Light 11h 15m
Length of Day
10h 23m
First Quarter, 57% of the Moon is Illuminated
Jan 19
First Quarter
Jan 26
Full
Feb 3
Last Quarter
Feb 10
New
Feb 17
First Quarter

Hourly Weather History & Observations

Time (CST) Temp. Windchill Dew Point Humidity Pressure Visibility Wind Dir Wind Speed Gust Speed Precip Events Conditions
12:53 AM 37.9 °F 32.1 °F 30.0 °F 73% 30.14 in 10.0 mi SE 8.1 mph - N/A   Clear
1:53 AM 37.0 °F - 30.0 °F 76% 30.13 in 10.0 mi Calm Calm - N/A   Clear
2:53 AM 36.0 °F - 28.9 °F 76% 30.12 in 10.0 mi Calm Calm - N/A   Clear
3:53 AM 30.0 °F - 27.0 °F 88% 30.12 in 10.0 mi Calm Calm - N/A   Clear
4:53 AM 33.1 °F - 28.0 °F 82% 30.11 in 10.0 mi Calm Calm - N/A   Clear
5:53 AM 28.0 °F - 25.0 °F 88% 30.14 in 10.0 mi Calm Calm - N/A   Clear
6:53 AM 27.0 °F 23.0 °F 24.1 °F 89% 30.16 in 10.0 mi NNE 3.5 mph - N/A   Clear
7:53 AM 26.1 °F 19.4 °F 24.1 °F 92% 30.17 in 10.0 mi North 5.8 mph - N/A   Clear
8:53 AM 30.9 °F - 27.0 °F 85% 30.19 in 10.0 mi Calm Calm - N/A   Clear
9:53 AM 39.9 °F - 30.0 °F 68% 30.21 in 10.0 mi Calm Calm - N/A   Clear
10:53 AM 48.0 °F - 30.0 °F 50% 30.21 in 10.0 mi Calm Calm - N/A   Clear
11:53 AM 55.9 °F - 25.0 °F 30% 30.18 in 10.0 mi Calm Calm - N/A   Clear
12:53 PM 60.1 °F - 23.0 °F 24% 30.14 in 10.0 mi WSW 3.5 mph - N/A   Clear
1:53 PM 64.9 °F - 23.0 °F 20% 30.10 in 10.0 mi West 5.8 mph - N/A   Clear
2:53 PM 68.0 °F - 18.0 °F 15% 30.07 in 10.0 mi West 11.5 mph - N/A   Clear
3:53 PM 70.0 °F - 15.1 °F 12% 30.08 in 10.0 mi WNW 6.9 mph - N/A   Clear
4:53 PM 70.0 °F - 14.0 °F 12% 30.08 in 10.0 mi NW 6.9 mph - N/A   Clear
5:53 PM 64.9 °F - 15.1 °F 15% 30.11 in 10.0 mi North 5.8 mph - N/A   Clear
6:53 PM 54.0 °F - 17.1 °F 23% 30.14 in 10.0 mi NNW 6.9 mph - N/A   Clear
7:53 PM 46.9 °F - 19.0 °F 33% 30.18 in 10.0 mi NNW 6.9 mph - N/A   Clear
8:53 PM 43.0 °F 38.2 °F 19.9 °F 40% 30.21 in 10.0 mi NNW 8.1 mph - N/A   Clear
9:53 PM 39.9 °F 34.5 °F 19.9 °F 45% 30.22 in 10.0 mi NNW 8.1 mph - N/A   Clear
10:53 PM 39.0 °F 32.8 °F 19.9 °F 46% 30.22 in 10.0 mi NNW 9.2 mph - N/A   Clear
11:53 PM 37.0 °F 32.4 °F 19.9 °F 50% 30.22 in 10.0 mi NNW 5.8 mph - N/A   Clear